Location: Waco, TX
(31.5480°N, 97.1670°W)
Time: 15:19:04
(UTC-05:00)

ISS - Pass Details

Date: 16 June 2018
Orbit: 402 x 406 km, 51.6° (Epoch: 20 June)

Event Time Altitude Azimuth Distance (km) Brightness Sun altitude
Rises 11:33:46 0° 240° (WSW) 2,314 -0.2 63.2°
Reaches altitude 10° 11:35:55 10° 248° (WSW) 1,457 -1.1 63.6°
Maximum altitude 11:39:00 38° 318° (NW) 630 -2.6 64.3°
Drops below altitude 10° 11:42:06 10° 29° (NNE) 1,463 -0.8 64.9°
Sets 11:44:17 0° 38° (NE) 2,325 0.2 65.4°
